| time (UTC) | temp F | wind direction | speed MPH | gust MPH | rain 1hr in | rain 24hr in | rain mn in | humidity % | barometer mb |
| 20260506020025 | 51 | 243 | 0.0 | 0.0 | 0.00 | 0.09 | 0.00 | 83 | 1005.4 |
| 20260506014532 | 51 | 226 | 0.0 | 0.0 | 0.00 | 0.09 | 0.00 | 83 | 1005.3 |
| 20260506013027 | 51 | 225 | 0.0 | 0.0 | 0.00 | 0.09 | 0.00 | 83 | 1005.4 |
| 20260506011619 | 51 | 225 | 0.0 | 0.0 | 0.00 | 0.09 | 0.00 | 83 | 1005.7 |
| 20260506010024 | 51 | 223 | 0.0 | 0.0 | 0.00 | 0.09 | 0.00 | 83 | 1005.7 |
| 20260506004524 | 51 | 222 | 0.0 | 0.0 | 0.00 | 0.09 | 0.00 | 83 | 1005.7 |
| 20260506003014 | 52 | 222 | 0.0 | 0.0 | 0.00 | 0.09 | 0.00 | 84 | 1005.7 |
| 20260506001514 | 52 | 245 | 0.0 | 0.0 | 0.00 | 0.09 | 0.00 | 84 | 1005.7 |
| 20260506000018 | 52 | 244 | 0.0 | 0.0 | 0.00 | 0.09 | 0.00 | 83 | 1006.0 |
| 20260505234515 | 52 | 243 | 0.0 | 0.0 | 0.00 | 0.09 | 0.00 | 83 | 1006.1 |
| 20260505233007 | 53 | 225 | 0.0 | 0.0 | 0.00 | 0.09 | 0.00 | 83 | 1006.1 |
| 20260505231506 | 53 | 223 | 0.0 | 0.0 | 0.00 | 0.09 | 0.00 | 84 | 1006.1 |
| 20260505230004 | 53 | 224 | 0.0 | 0.0 | 0.00 | 0.09 | 0.00 | 83 | 1006.2 |
| 20260505224506 | 53 | 257 | 0.0 | 0.0 | 0.00 | 0.09 | 0.00 | 84 | 1006.3 |
| 20260505223007 | 53 | 244 | 0.0 | 0.0 | 0.00 | 0.09 | 0.00 | 84 | 1006.2 |
| 20260505221502 | 53 | 227 | 0.0 | 0.0 | 0.00 | 0.09 | 0.00 | 84 | 1006.4 |
| 20260505220100 | 53 | 244 | 0.0 | 0.0 | 0.00 | 0.09 | 0.00 | 84 | 1006.2 |
| 20260505214607 | 53 | 227 | 0.0 | 0.0 | 0.00 | 0.09 | 0.09 | 85 | 1006.1 |
| 20260505213100 | 53 | 227 | 0.0 | 0.0 | 0.00 | 0.09 | 0.09 | 85 | 1006.2 |
| 20260505211611 | 53 | 226 | 0.0 | 0.0 | 0.00 | 0.09 | 0.09 | 85 | 1006.0 |
| 20260505210104 | 54 | 225 | 0.0 | 0.0 | 0.00 | 0.09 | 0.09 | 85 | 1006.0 |
| 20260505204553 | 54 | 224 | 0.0 | 0.0 | 0.00 | 0.09 | 0.09 | 85 | 1005.9 |
| 20260505203053 | 54 | 244 | 0.0 | 0.0 | 0.00 | 0.09 | 0.09 | 86 | 1005.8 |
| 20260505201559 | 54 | 227 | 0.0 | 0.0 | 0.00 | 0.09 | 0.09 | 86 | 1005.5 |
| 20260505200050 | 54 | 227 | 0.0 | 0.0 | 0.00 | 0.09 | 0.09 | 86 | 1005.6 |
| 20260505194548 | 55 | 229 | 0.0 | 0.0 | 0.00 | 0.09 | 0.09 | 86 | 1005.6 |
| 20260505193050 | 55 | 226 | 0.0 | 0.0 | 0.00 | 0.09 | 0.09 | 86 | 1005.7 |
| 20260505191552 | 55 | 225 | 0.0 | 0.0 | 0.00 | 0.09 | 0.09 | 86 | 1005.5 |
| 20260505190058 | 55 | 246 | 0.0 | 0.0 | 0.00 | 0.09 | 0.09 | 86 | 1005.4 |
| 20260505184552 | 56 | 244 | 0.0 | 0.0 | 0.00 | 0.09 | 0.09 | 86 | 1005.2 |
| 20260505183049 | 56 | 240 | 0.0 | 0.0 | 0.00 | 0.09 | 0.09 | 86 | 1005.2 |
| 20260505181539 | 57 | 221 | 0.0 | 0.0 | 0.00 | 0.09 | 0.09 | 85 | 1004.8 |
| 20260505180041 | 57 | 213 | 0.0 | 0.0 | 0.00 | 0.09 | 0.09 | 85 | 1004.7 |
| 20260505174540 | 57 | 200 | 0.0 | 0.0 | 0.00 | 0.09 | 0.09 | 85 | 1004.9 |
| 20260505173040 | 57 | 202 | 0.0 | 0.0 | 0.01 | 0.09 | 0.09 | 85 | 1004.8 |
| 20260505171540 | 57 | 227 | 0.0 | 5.0 | 0.04 | 0.09 | 0.09 | 85 | 1004.6 |
| 20260505170035 | 57 | 200 | 2.0 | 7.0 | 0.06 | 0.09 | 0.09 | 86 | 1004.6 |
| 20260505164537 | 57 | 197 | 5.0 | 12.0 | 0.08 | 0.09 | 0.09 | 86 | 1004.6 |
| 20260505163033 | 58 | 247 | 5.0 | 10.0 | 0.08 | 0.08 | 0.08 | 86 | 1004.9 |
| 20260505161532 | 58 | 182 | 3.0 | 11.0 | 0.05 | 0.05 | 0.05 | 86 | 1005.3 |
| 20260505153030 | 62 | 206 | 11.0 | 25.0 | 0.00 | 0.00 | 0.00 | 79 | 1004.8 |
| 20260505151524 | 68 | 360 | 13.0 | 20.0 | 0.00 | 0.00 | 0.00 | 65 | 1004.2 |
| 20260505124514 | 74 | 223 | 0.0 | 0.0 | 0.00 | 0.00 | 0.00 | 44 | 1004.3 |
| 20260505123009 | 74 | 277 | 0.0 | 0.0 | 0.00 | 0.00 | 0.00 | 44 | 1004.4 |
| 20260505121510 | 74 | 283 | 0.0 | 6.0 | 0.00 | 0.00 | 0.00 | 45 | 1004.4 |
| 20260505120005 | 74 | 252 | 4.0 | 8.0 | 0.00 | 0.00 | 0.00 | 43 | 1004.6 |
| 20260505114503 | 73 | 5 | 0.0 | 0.0 | 0.00 | 0.00 | 0.00 | 48 | 1004.8 |
| 20260505113001 | 72 | 11 | 0.0 | 0.0 | 0.00 | 0.00 | 0.00 | 51 | 1004.8 |
| 20260505111603 | 73 | 13 | 2.0 | 9.0 | 0.00 | 0.00 | 0.00 | 52 | 1005.0 |
| 20260505101552 | 72 | 16 | 0.0 | 0.0 | 0.00 | 0.00 | 0.00 | 56 | 1005.4 |
| 20260505100048 | 71 | 12 | 0.0 | 0.0 | 0.00 | 0.00 | 0.00 | 60 | 1005.6 |
| 20260505094547 | 70 | 11 | 0.0 | 0.0 | 0.00 | 0.00 | 0.00 | 60 | 1005.7 |
| 20260505093046 | 69 | 17 | 0.0 | 0.0 | 0.00 | 0.00 | 0.00 | 63 | 1006.1 |
| 20260505091544 | 69 | 15 | 0.0 | 0.0 | 0.00 | 0.00 | 0.00 | 65 | 1006.2 |
| 20260505090046 | 68 | 32 | 0.0 | 0.0 | 0.00 | 0.00 | 0.00 | 68 | 1006.3 |
| 20260505084531 | 67 | 37 | 0.0 | 0.0 | 0.00 | 0.00 | 0.00 | 66 | 1006.4 |
| 20260505083028 | 66 | 13 | 0.0 | 0.0 | 0.00 | 0.00 | 0.00 | 67 | 1006.5 |
| 20260505081535 | 66 | 15 | 0.0 | 0.0 | 0.00 | 0.00 | 0.00 | 70 | 1006.5 |
| 20260505080043 | 65 | 15 | 0.0 | 0.0 | 0.00 | 0.00 | 0.00 | 69 | 1006.7 |
| 20260505074520 | 64 | 11 | 0.0 | 0.0 | 0.00 | 0.00 | 0.00 | 71 | 1006.7 |
| 20260505073017 | 64 | 10 | 0.0 | 0.0 | 0.00 | 0.00 | 0.00 | 73 | 1006.9 |
| 20260505071510 | 63 | 286 | 0.0 | 0.0 | 0.00 | 0.00 | 0.00 | 74 | 1007.3 |
| 20260505070011 | 62 | 266 | 0.0 | 0.0 | 0.00 | 0.00 | 0.00 | 77 | 1007.3 |
| 20260505064508 | 61 | 265 | 0.0 | 0.0 | 0.00 | 0.00 | 0.00 | 79 | 1007.2 |
| 20260505063006 | 60 | 262 | 0.0 | 0.0 | 0.00 | 0.00 | 0.00 | 80 | 1007.4 |
| 20260505061509 | 59 | 258 | 0.0 | 0.0 | 0.00 | 0.00 | 0.00 | 80 | 1007.5 |
| 20260505060003 | 59 | 261 | 0.0 | 0.0 | 0.00 | 0.00 | 0.00 | 81 | 1007.6 |
| 20260505054602 | 59 | 262 | 0.0 | 0.0 | 0.00 | 0.00 | 0.00 | 80 | 1007.4 |
| 20260505053056 | 59 | 266 | 0.0 | 0.0 | 0.00 | 0.00 | 0.00 | 79 | 1007.5 |
| 20260505051555 | 59 | 13 | 0.0 | 0.0 | 0.00 | 0.00 | 0.00 | 80 | 1007.5 |
| 20260505050124 | 58 | 15 | 0.0 | 0.0 | 0.00 | 0.00 | 0.00 | 80 | 1007.5 |
| 20260505041601 | 57 | 360 | 0.0 | 0.0 | 0.00 | 0.00 | 0.00 | 79 | 1007.6 |
| 20260505040054 | 58 | 295 | 0.0 | 0.0 | 0.00 | 0.00 | 0.00 | 79 | 1007.6 |
| 20260505034543 | 58 | 273 | 0.0 | 0.0 | 0.00 | 0.00 | 0.00 | 79 | 1007.6 |
| 20260505033046 | 58 | 272 | 0.0 | 0.0 | 0.00 | 0.00 | 0.00 | 79 | 1007.5 |
| 20260505031546 | 58 | 271 | 0.0 | 0.0 | 0.00 | 0.00 | 0.00 | 78 | 1007.7 |
| 20260505030041 | 58 | 271 | 0.0 | 0.0 | 0.00 | 0.00 | 0.00 | 78 | 1007.8 |
| 20260505024535 | 58 | 272 | 0.0 | 0.0 | 0.00 | 0.00 | 0.00 | 77 | 1008.0 |
| 20260505023039 | 59 | 271 | 0.0 | 0.0 | 0.00 | 0.00 | 0.00 | 77 | 1008.2 |
| 20260505021531 | 59 | 269 | 0.0 | 0.0 | 0.00 | 0.00 | 0.00 | 76 | 1008.3 |